| time (UTC) | temp F | wind direction | speed MPH | gust MPH | rain 1hr in | rain 24hr in | rain mn in | humidity % | barometer mb |
| 20260506205026 | 63 | 141 | 1.0 | 2.0 | 0.00 | 0.00 | 0.00 | 75 | 1009.9 |
| 20260506202853 | 63 | 140 | 5.0 | 6.0 | 0.00 | 0.00 | 0.00 | 73 | 1009.8 |
| 20260506201029 | 63 | 140 | 3.0 | 5.0 | 0.00 | 0.00 | 0.00 | 72 | 1009.8 |
| 20260506195222 | 64 | 131 | 4.0 | 6.0 | 0.00 | 0.00 | 0.00 | 71 | 1009.3 |
| 20260506193122 | 65 | 117 | 5.0 | 8.0 | 0.00 | 0.00 | 0.00 | 65 | 1009.1 |
| 20260506191213 | 65 | 117 | 5.0 | 8.0 | 0.00 | 0.00 | 0.00 | 65 | 1009.1 |
| 20260506185214 | 65 | 117 | 5.0 | 8.0 | 0.00 | 0.00 | 0.00 | 65 | 1009.1 |
| 20260506183152 | 65 | 117 | 5.0 | 8.0 | 0.00 | 0.00 | 0.00 | 65 | 1009.1 |
| 20260506181112 | 65 | 113 | 5.0 | 7.0 | 0.00 | 0.00 | 0.00 | 66 | 1008.9 |
| 20260506175034 | 65 | 125 | 3.0 | 8.0 | 0.00 | 0.03 | 0.00 | 66 | 1008.8 |
| 20260506172940 | 66 | 84 | 6.0 | 12.0 | 0.00 | 0.03 | 0.00 | 66 | 1008.9 |
| 20260506170859 | 65 | 85 | 6.0 | 12.0 | 0.00 | 0.03 | 0.00 | 66 | 1008.9 |
| 20260506164647 | 65 | 91 | 5.0 | 12.0 | 0.00 | 0.03 | 0.00 | 66 | 1009.8 |
| 20260506162532 | 65 | 91 | 5.0 | 12.0 | 0.00 | 0.03 | 0.00 | 66 | 1009.8 |
| 20260506160524 | 65 | 91 | 5.0 | 12.0 | 0.00 | 0.03 | 0.00 | 66 | 1009.8 |
| 20260506154430 | 65 | 91 | 5.0 | 12.0 | 0.00 | 0.03 | 0.00 | 66 | 1009.8 |
| 20260506152431 | 65 | 91 | 5.0 | 12.0 | 0.00 | 0.03 | 0.00 | 66 | 1009.8 |
| 20260506150302 | 65 | 91 | 5.0 | 12.0 | 0.00 | 0.03 | 0.00 | 66 | 1009.8 |
| 20260506144122 | 65 | 91 | 5.0 | 12.0 | 0.00 | 0.03 | 0.00 | 66 | 1009.8 |
| 20260506142140 | 65 | 91 | 5.0 | 12.0 | 0.00 | 0.03 | 0.00 | 66 | 1009.8 |
| 20260506140049 | 64 | 71 | 8.0 | 13.0 | 0.00 | 0.04 | 0.00 | 68 | 1010.0 |
| 20260506134149 | 64 | 71 | 8.0 | 13.0 | 0.00 | 0.04 | 0.00 | 68 | 1010.0 |
| 20260506132106 | 66 | 83 | 6.0 | 12.0 | 0.00 | 0.04 | 0.00 | 65 | 1010.2 |
| 20260506130213 | 66 | 83 | 6.0 | 12.0 | 0.00 | 0.04 | 0.00 | 65 | 1010.2 |
| 20260506124143 | 66 | 77 | 7.0 | 13.0 | 0.00 | 0.11 | 0.00 | 68 | 1010.4 |
| 20260506122224 | 66 | 77 | 7.0 | 13.0 | 0.00 | 0.11 | 0.00 | 68 | 1010.4 |
| 20260506120122 | 66 | 68 | 6.0 | 12.0 | 0.00 | 0.11 | 0.00 | 66 | 1010.7 |
| 20260506114129 | 66 | 68 | 6.0 | 12.0 | 0.00 | 0.11 | 0.00 | 66 | 1010.7 |
| 20260506112228 | 66 | 68 | 6.0 | 12.0 | 0.00 | 0.11 | 0.00 | 66 | 1010.7 |
| 20260506110215 | 66 | 49 | 6.0 | 12.0 | 0.00 | 0.11 | 0.00 | 67 | 1010.7 |
| 20260506104139 | 65 | 46 | 7.0 | 12.0 | 0.00 | 0.11 | 0.00 | 70 | 1010.7 |
| 20260506102305 | 65 | 46 | 7.0 | 12.0 | 0.00 | 0.11 | 0.00 | 70 | 1010.7 |
| 20260506100301 | 65 | 62 | 6.0 | 12.0 | 0.00 | 0.11 | 0.00 | 69 | 1010.6 |
| 20260506094247 | 65 | 62 | 6.0 | 12.0 | 0.00 | 0.11 | 0.00 | 69 | 1010.6 |
| 20260506092144 | 64 | 10 | 11.0 | 14.0 | 0.00 | 0.11 | 0.00 | 71 | 1009.4 |
| 20260506090229 | 64 | 10 | 11.0 | 14.0 | 0.00 | 0.11 | 0.00 | 71 | 1009.4 |
| 20260506084222 | 64 | 10 | 11.0 | 14.0 | 0.00 | 0.11 | 0.00 | 71 | 1009.4 |
| 20260506082130 | 64 | 10 | 11.0 | 14.0 | 0.00 | 0.11 | 0.00 | 71 | 1009.4 |
| 20260506080246 | 64 | 10 | 11.0 | 14.0 | 0.00 | 0.11 | 0.00 | 71 | 1009.4 |
| 20260506072034 | 64 | 10 | 11.0 | 14.0 | 0.00 | 0.11 | 0.00 | 71 | 1009.4 |
| 20260506062059 | 64 | 10 | 11.0 | 14.0 | 0.00 | 0.11 | 0.00 | 71 | 1009.4 |
| 20260506044118 | 64 | 12 | 8.0 | 13.0 | 0.00 | 0.11 | 0.00 | 70 | 1009.0 |
| 20260506042239 | 64 | 11 | 9.0 | 13.0 | 0.00 | 0.11 | 0.00 | 71 | 1009.0 |
| 20260506040336 | 64 | 14 | 9.0 | 13.0 | 0.00 | 0.11 | 0.00 | 73 | 1008.9 |
| 20260506034254 | 65 | 38 | 2.0 | 6.0 | 0.00 | 0.11 | 0.00 | 74 | 1009.0 |
| 20260506032149 | 65 | 45 | 5.0 | 10.0 | 0.00 | 0.11 | 0.00 | 75 | 1008.9 |
| 20260506030233 | 65 | 59 | 3.0 | 10.0 | 0.00 | 0.11 | 0.00 | 77 | 1008.9 |
| 20260506024109 | 65 | 50 | 6.0 | 12.0 | 0.00 | 0.11 | 0.00 | 77 | 1009.0 |
| 20260506021945 | 65 | 50 | 6.0 | 12.0 | 0.00 | 0.11 | 0.00 | 77 | 1009.0 |
| 20260506015837 | 65 | 47 | 8.0 | 13.0 | 0.00 | 0.11 | 0.00 | 80 | 1009.0 |
| 20260506013622 | 65 | 47 | 8.0 | 13.0 | 0.00 | 0.11 | 0.00 | 80 | 1009.0 |
| 20260506011640 | 65 | 26 | 12.0 | 16.0 | 0.00 | 0.11 | 0.00 | 83 | 1009.0 |
| 20260506005631 | 65 | 26 | 12.0 | 16.0 | 0.00 | 0.11 | 0.00 | 83 | 1009.0 |
| 20260506003622 | 65 | 291 | 7.0 | 13.0 | 0.00 | 0.11 | 0.00 | 83 | 1008.9 |
| 20260506001624 | 65 | 269 | 9.0 | 16.0 | 0.00 | 0.11 | 0.00 | 81 | 1009.0 |
| 20260505235646 | 65 | 269 | 9.0 | 16.0 | 0.00 | 0.11 | 0.00 | 81 | 1009.0 |
| 20260505233433 | 65 | 240 | 9.0 | 12.0 | 0.00 | 0.11 | 0.00 | 76 | 1008.9 |
| 20260505231429 | 65 | 240 | 9.0 | 12.0 | 0.00 | 0.11 | 0.00 | 76 | 1008.9 |
| 20260505225459 | 70 | 315 | 6.0 | 10.0 | 0.00 | 0.11 | 0.00 | 46 | 1008.5 |
| 20260505223311 | 70 | 315 | 6.0 | 10.0 | 0.00 | 0.11 | 0.00 | 46 | 1008.5 |
| 20260505221248 | 70 | 298 | 2.0 | 3.0 | 0.00 | 0.11 | 0.11 | 47 | 1008.3 |
| 20260505215054 | 70 | 298 | 2.0 | 3.0 | 0.00 | 0.11 | 0.11 | 47 | 1008.3 |
| 20260505213237 | 70 | 298 | 2.0 | 3.0 | 0.00 | 0.11 | 0.11 | 47 | 1008.3 |
| 20260505211216 | 70 | 235 | 5.0 | 13.0 | 0.00 | 0.11 | 0.11 | 42 | 1008.3 |